Home   Weather   Enugu   Past weeks

Flag for Nigeria Past Weather in Enugu, Nigeria — Yesterday and Last 2 Weeks

Now
81 °F

Thunderstorms. Passing clouds.


Feels Like: 85 °F
Forecast: 72 / 93 °F
Wind: 5 mph from Southwest

Location: Malabo/Fernando Poo

Current Time: Dec 6, 2016 at 4:03:50 am

Latest Report: Dec 6, 2016 at 1:00 am


Visibility: N/A

Pressure: 29.89 "Hg

Humidity: 79%

Dew Point: 73 °F

Location of EnuguLocation

Past Weather in Enugu — Graph

°F

Enugu Temperature Yesterday

Maximum temperature yesterday: 90 °F (at 12:00 pm)
Minimum temperature yesterday: 75 °F (at 7:00 am)
Average temperature yesterday: 82 °F

High & Low Weather Summary for the Past Weeks

 TemperatureHumidityPressure
High90 °F (Nov 23, 2:00 pm)94% (Nov 21, 8:00 pm)29.95 "Hg (Nov 21, 8:00 pm)
Low72 °F (Nov 22, 3:00 am)55% (Dec 5, 12:00 pm)29.74 "Hg (Nov 25, 4:00 pm)
Average81 °F83%29.85 "Hg
* Reported Nov 21 1:00 am — Dec 6 1:00 am, Enugu, Weather by CustomWeather, © 2016

Note: Actual official high and low records may vary slightly from our data, if they occured in-between our weather recording intervals... More about our weather records

Advertising

Enugu Weather History for the Previous 24 Hours

Scroll right to see more
 ConditionsComfort  
Time TempWeatherWind HumidityBarometerVisibility
1:00 am
Tue, Dec 6
81 °FThunderstorms. Passing clouds.5 mph79%29.89 "HgN/A
12:00 am79 °FThunderstorms. Passing clouds.8 mph84%29.89 "HgN/A
11:00 pm
Mon, Dec 5
81 °FPassing clouds.8 mph79%29.92 "HgN/A
10:00 pm79 °FPassing clouds.7 mph84%29.92 "HgN/A
9:00 pm81 °FPassing clouds.6 mph84%29.92 "HgN/A
8:00 pm81 °FPassing clouds.5 mph84%29.89 "HgN/A
7:00 pm81 °FPassing clouds.5 mph84%29.86 "Hg5 mi
6:00 pm82 °FPassing clouds.6 mph79%29.83 "Hg5 mi
5:00 pm86 °FPassing clouds.5 mph70%29.83 "Hg5 mi
4:00 pm88 °FPassing clouds.5 mph66%29.83 "Hg5 mi
3:00 pm88 °FPassing clouds.7 mph66%29.83 "Hg5 mi
2:00 pm88 °FPassing clouds.7 mph70%29.83 "Hg5 mi
1:00 pm88 °FPassing clouds.8 mph66%29.86 "HgN/A
12:00 pm90 °FPassing clouds.6 mph55%29.89 "HgN/A
11:00 am88 °FPassing clouds.7 mph66%29.92 "HgN/A
10:00 am88 °FPassing clouds.7 mph70%29.92 "HgN/A
9:00 am86 °FPassing clouds.5 mph75%29.92 "Hg5 mi
8:00 am79 °FPassing clouds.No wind89%29.92 "Hg5 mi
7:00 am75 °FPassing clouds.No wind94%29.89 "HgN/A
6:00 am77 °FPassing clouds.No wind89%29.86 "HgN/A
5:00 am77 °FPassing clouds.No wind89%29.86 "HgN/A
4:00 am77 °FPassing clouds.No wind89%29.86 "HgN/A
Weather by CustomWeather, © 2016

See weather overviewHow to use our weather pages